When you browse on this site, cookies collect data to enhance your experience and personalize the content and advertising you see.
Visit our Privacy Policy to learn more. By continuing to use the site, you agree to this use of cookies and data.
  • în România
  • Lista ţărilor
  • Pe 7 zile
  • Temperatura apei
  • Hartă satelitară
  • Meteo pe hartă
  • Widget-uri
  • user-avatar
    Intrare

    Meteo pe oră la Prutz

    Astăzi, 20 Aprilie, Sâmbătă

    Timp Temperatura Precipitaţii Vânt Presiune Umiditate
    00:00 +2°C° 0 mm 2 m/s 638 mmHg 70%
    01:00 +1°C° 0 mm 3 m/s 638 mmHg 69%
    02:00 0°C° 0 mm 3 m/s 638 mmHg 69%
    03:00 0°C° 0 mm 3 m/s 638 mmHg 69%
    04:00 -1°C° 0 mm 3 m/s 638 mmHg 69%
    05:00 +1°C° 0 mm 2 m/s 638 mmHg 69%
    06:00 +2°C° 0 mm 2 m/s 638 mmHg 70%
    07:00 +4°C° 0 mm 2 m/s 639 mmHg 65%
    08:00 +6°C° 0 mm 2 m/s 639 mmHg 64%
    09:00 +8°C° 0 mm 2 m/s 639 mmHg 64%
    10:00 +10°C° 0 mm 1 m/s 640 mmHg 64%
    11:00 +11°C° 0 mm 1 m/s 640 mmHg 61%
    12:00 +12°C° 0 mm 1 m/s 640 mmHg 57%
    13:00 +13°C° 0 mm 1 m/s 640 mmHg 54%
    14:00 +13°C° 0 mm 1 m/s 640 mmHg 53%
    15:00 +13°C° 0 mm 1 m/s 640 mmHg 52%
    16:00 +13°C° 0 mm 1 m/s 639 mmHg 51%
    17:00 +11°C° 0 mm 1 m/s 638 mmHg 57%
    18:00 +8°C° 0 mm 1 m/s 637 mmHg 63%
    19:00 +6°C° 0 mm 1 m/s 636 mmHg 69%
    20:00 +4°C° 0 mm 2 m/s 636 mmHg 66%
    21:00 +3°C° 0 mm 2 m/s 637 mmHg 64%
    22:00 +1°C° 0 mm 3 m/s 637 mmHg 62%
    23:00 +1°C° 0 mm 3 m/s 636 mmHg 61%

    Mâine, 21 Aprilie, Duminică

    Timp Temperatura Precipitaţii Vânt Presiune Umiditate
    00:00 +1°C° 0 mm 3 m/s 636 mmHg 60%
    01:00 0°C° 0 mm 3 m/s 636 mmHg 59%
    02:00 0°C° 0 mm 3 m/s 636 mmHg 59%
    03:00 0°C° 0 mm 3 m/s 635 mmHg 60%
    04:00 0°C° 0 mm 3 m/s 635 mmHg 61%
    05:00 +2°C° 0 mm 2 m/s 635 mmHg 59%
    06:00 +3°C° 0 mm 2 m/s 635 mmHg 58%
    07:00 +4°C° 0 mm 2 m/s 635 mmHg 57%
    08:00 +7°C° 0 mm 2 m/s 636 mmHg 51%
    09:00 +9°C° 0 mm 2 m/s 636 mmHg 44%
    10:00 +13°C° 0 mm 1 m/s 637 mmHg 38%
    11:00 +14°C° 0 mm 1 m/s 637 mmHg 36%
    12:00 +14°C° 0 mm 1 m/s 637 mmHg 34%
    13:00 +15°C° 0 mm 2 m/s 636 mmHg 32%
    14:00 +15°C° 0 mm 2 m/s 636 mmHg 33%
    15:00 +15°C° 0 mm 2 m/s 636 mmHg 34%
    16:00 +15°C° 0 mm 2 m/s 635 mmHg 35%
    17:00 +12°C° 0 mm 2 m/s 634 mmHg 44%
    18:00 +9°C° 0 mm 2 m/s 633 mmHg 54%
    19:00 +6°C° 0 mm 2 m/s 632 mmHg 63%
    20:00 +4°C° 0 mm 3 m/s 632 mmHg 66%
    21:00 +3°C° 0 mm 3 m/s 632 mmHg 68%
    22:00 +2°C° 0 mm 3 m/s 632 mmHg 71%
    23:00 +2°C° 0 mm 3 m/s 632 mmHg 74%

    Poimâine, 22 Aprilie, Luni

    Timp Temperatura Precipitaţii Vânt Presiune Umiditate
    00:00 +2°C° 0 mm 3 m/s 631 mmHg 78%
    01:00 +1°C° 0 mm 3 m/s 631 mmHg 82%
    02:00 +1°C° 0 mm 3 m/s 631 mmHg 81%
    03:00 +1°C° 0 mm 3 m/s 630 mmHg 81%
    04:00 +1°C° 0 mm 3 m/s 630 mmHg 80%
    05:00 +2°C° 0 mm 3 m/s 630 mmHg 73%
    06:00 +3°C° 0 mm 3 m/s 630 mmHg 66%
    07:00 +5°C° 0 mm 3 m/s 630 mmHg 59%
    08:00 +8°C° 0 mm 3 m/s 631 mmHg 53%
    09:00 +10°C° 0 mm 3 m/s 631 mmHg 48%
    10:00 +13°C° 0 mm 2 m/s 631 mmHg 42%
    11:00 +13°C° 0 mm 3 m/s 631 mmHg 40%
    12:00 +14°C° 0 mm 3 m/s 631 mmHg 38%
    13:00 +16°C° 0 mm 3 m/s 630 mmHg 36%
    14:00 +16°C° 0 mm 3 m/s 630 mmHg 37%
    15:00 +15°C° 0 mm 2 m/s 629 mmHg 38%
    16:00 +15°C° 0 mm 2 m/s 629 mmHg 38%
    17:00 +13°C° 0 mm 2 m/s 627 mmHg 47%
    18:00 +10°C° 0 mm 2 m/s 626 mmHg 55%
    19:00 +7°C° 0 mm 2 m/s 625 mmHg 64%
    20:00 +7°C° 0 mm 3 m/s 625 mmHg 67%
    21:00 +5°C° 0 mm 3 m/s 625 mmHg 70%
    22:00 +4°C° 0 mm 3 m/s 625 mmHg 74%
    23:00 +4°C° 0 mm 3 m/s 625 mmHg 76%

    23 Aprilie, Marţi

    Timp Temperatura Precipitaţii Vânt Presiune Umiditate
    00:00 +4°C° 0 mm 3 m/s 624 mmHg 79%
    01:00 +4°C° 0 mm 4 m/s 624 mmHg 81%
    02:00 +4°C° 0 mm 3 m/s 624 mmHg 81%
    03:00 +4°C° 0 mm 3 m/s 623 mmHg 80%
    04:00 +3°C° 0 mm 3 m/s 623 mmHg 80%
    05:00 +4°C° 0 mm 3 m/s 623 mmHg 77%
    06:00 +5°C° 0 mm 3 m/s 623 mmHg 75%
    07:00 +5°C° 0 mm 3 m/s 623 mmHg 72%
    08:00 +8°C° 0.1 mm 3 m/s 623 mmHg 67%
    09:00 +9°C° 0.1 mm 3 m/s 624 mmHg 62%
    10:00 +11°C° 0.1 mm 3 m/s 624 mmHg 57%
    11:00 +12°C° 0 mm 3 m/s 624 mmHg 55%
    12:00 +13°C° 0 mm 3 m/s 624 mmHg 52%
    13:00 +14°C° 0 mm 3 m/s 624 mmHg 50%
    14:00 +13°C° 0.2 mm 3 m/s 624 mmHg 52%
    15:00 +13°C° 0.2 mm 3 m/s 624 mmHg 54%
    16:00 +13°C° 0.2 mm 3 m/s 624 mmHg 56%
    17:00 +11°C° 0.2 mm 3 m/s 624 mmHg 63%
    18:00 +10°C° 0.2 mm 3 m/s 623 mmHg 70%
    19:00 +8°C° 0.2 mm 2 m/s 623 mmHg 78%
    20:00 +7°C° 0 mm 3 m/s 623 mmHg 79%
    21:00 +7°C° 0 mm 3 m/s 624 mmHg 81%
    22:00 +5°C° 0 mm 3 m/s 624 mmHg 83%
    23:00 +5°C° 0 mm 3 m/s 624 mmHg 83%

    24 Aprilie, Miercuri

    Timp Temperatura Precipitaţii Vânt Presiune Umiditate
    00:00 +5°C° 0 mm 4 m/s 624 mmHg 84%
    01:00 +5°C° 0 mm 4 m/s 625 mmHg 84%
    02:00 +5°C° 0 mm 4 m/s 625 mmHg 84%
    03:00 +5°C° 0 mm 3 m/s 625 mmHg 83%
    04:00 +5°C° 0 mm 3 m/s 625 mmHg 83%
    05:00 +5°C° 0 mm 3 m/s 626 mmHg 80%
    06:00 +7°C° 0 mm 3 m/s 626 mmHg 78%
    07:00 +7°C° 0 mm 4 m/s 627 mmHg 75%
    08:00 +8°C° 0 mm 4 m/s 628 mmHg 68%
    09:00 +11°C° 0 mm 4 m/s 629 mmHg 62%
    10:00 +12°C° 0 mm 4 m/s 630 mmHg 55%
    11:00 +13°C° 0 mm 4 m/s 630 mmHg 54%
    12:00 +13°C° 0 mm 4 m/s 630 mmHg 53%
    13:00 +14°C° 0 mm 5 m/s 630 mmHg 51%
    14:00 +13°C° 0 mm 5 m/s 630 mmHg 52%
    15:00 +13°C° 0 mm 5 m/s 629 mmHg 53%
    16:00 +13°C° 0 mm 4 m/s 629 mmHg 54%
    17:00 +12°C° 0 mm 4 m/s 629 mmHg 60%
    18:00 +10°C° 0 mm 4 m/s 629 mmHg 66%
    19:00 +8°C° 0 mm 4 m/s 629 mmHg 72%
    20:00 +7°C° 0 mm 4 m/s 629 mmHg 76%
    21:00 +7°C° 0 mm 4 m/s 630 mmHg 80%
    22:00 +6°C° 0 mm 4 m/s 630 mmHg 84%
    23:00 +6°C° 0 mm 4 m/s 630 mmHg 85%

    25 Aprilie, Joi

    Timp Temperatura Precipitaţii Vânt Presiune Umiditate
    00:00 +5°C° 0 mm 3 m/s 631 mmHg 86%
    01:00 +5°C° 0 mm 3 m/s 631 mmHg 87%
    02:00 +5°C° 0 mm 3 m/s 631 mmHg 87%
    03:00 +5°C° 0 mm 3 m/s 631 mmHg 87%
    04:00 +5°C° 0 mm 3 m/s 631 mmHg 87%
    05:00 +6°C° 0 mm 4 m/s 631 mmHg 83%
    06:00 +7°C° 0 mm 4 m/s 631 mmHg 79%
    07:00 +8°C° 0 mm 4 m/s 632 mmHg 75%
    08:00 +10°C° 0 mm 4 m/s 632 mmHg 68%
    09:00 +12°C° 0 mm 5 m/s 632 mmHg 61%
    10:00 +13°C° 0 mm 5 m/s 633 mmHg 53%
    11:00 +14°C° 0 mm 5 m/s 633 mmHg 52%
    12:00 +14°C° 0 mm 5 m/s 633 mmHg 50%
    13:00 +15°C° 0 mm 5 m/s 633 mmHg 48%
    14:00 +15°C° 0.1 mm 5 m/s 632 mmHg 49%
    15:00 +14°C° 0.1 mm 4 m/s 632 mmHg 49%
    16:00 +14°C° 0.1 mm 4 m/s 632 mmHg 50%
    17:00 +13°C° 0 mm 4 m/s 631 mmHg 57%
    18:00 +11°C° 0 mm 4 m/s 630 mmHg 64%
    19:00 +10°C° 0 mm 3 m/s 630 mmHg 70%
    20:00 +9°C° 0.1 mm 3 m/s 630 mmHg 75%
    21:00 +7°C° 0.1 mm 4 m/s 630 mmHg 80%
    22:00 +6°C° 0.1 mm 4 m/s 630 mmHg 85%
    23:00 +7°C° 0.1 mm 3 m/s 630 mmHg 85%
    Arată mai mult